TimeEDT,TemperatureF,Dew PointF,Humidity,Sea Level PressureIn,VisibilityMPH,Wind Direction,Wind SpeedMPH,Gust SpeedMPH,PrecipitationIn,Events,Conditions,WindDirDegrees,DateUTC
12:53 AM,84.0,79.0,85,30.06,10.0,ENE,10.4,-,N/A,,Partly Cloudy,70,2012-10-05 04:53:00
1:53 AM,82.9,79.0,88,30.05,10.0,ENE,6.9,-,N/A,,Clear,70,2012-10-05 05:53:00
2:53 AM,82.9,80.1,91,30.04,10.0,East,8.1,-,N/A,,Mostly Cloudy,90,2012-10-05 06:53:00
3:53 AM,82.0,78.1,88,30.02,10.0,East,6.9,-,N/A,,Clear,100,2012-10-05 07:53:00
4:53 AM,82.9,78.1,85,30.01,10.0,ENE,6.9,-,N/A,,Partly Cloudy,70,2012-10-05 08:53:00
5:53 AM,82.9,78.1,85,30.01,10.0,East,8.1,-,N/A,,Partly Cloudy,80,2012-10-05 09:53:00
6:53 AM,82.9,77.0,82,30.02,10.0,ENE,10.4,-,N/A,,Clear,70,2012-10-05 10:53:00
7:53 AM,82.9,77.0,82,30.02,10.0,East,10.4,-,N/A,,Partly Cloudy,80,2012-10-05 11:53:00
8:53 AM,84.9,78.1,80,30.03,10.0,East,8.1,-,N/A,,Scattered Clouds,90,2012-10-05 12:53:00
9:53 AM,86.0,78.1,77,30.03,10.0,East,10.4,-,0.02,,Clear,80,2012-10-05 13:53:00
10:53 AM,86.0,75.9,72,30.04,10.0,East,9.2,-,N/A,,Scattered Clouds,90,2012-10-05 14:53:00
11:53 AM,88.0,78.1,72,30.02,10.0,ENE,12.7,16.1,N/A,,Clear,70,2012-10-05 15:53:00
1:53 PM,90.0,75.9,63,29.99,10.0,East,8.1,16.1,N/A,,Partly Cloudy,100,2012-10-05 17:53:00
2:53 PM,89.1,75.9,65,29.96,10.0,ESE,8.1,-,N/A,,Clear,110,2012-10-05 18:53:00
3:53 PM,88.0,75.9,67,29.94,10.0,East,8.1,-,N/A,,Partly Cloudy,80,2012-10-05 19:53:00
4:53 PM,88.0,77.0,70,29.93,10.0,Variable,5.8,-,N/A,,Partly Cloudy,0,2012-10-05 20:53:00
5:53 PM,86.0,77.0,74,29.93,10.0,East,6.9,-,N/A,,Partly Cloudy,90,2012-10-05 21:53:00
6:53 PM,84.9,77.0,77,29.93,10.0,East,5.8,-,N/A,,Partly Cloudy,80,2012-10-05 22:53:00
7:53 PM,84.0,77.0,79,29.94,10.0,ENE,8.1,-,N/A,,Partly Cloudy,60,2012-10-05 23:53:00
8:53 PM,84.0,77.0,79,29.96,10.0,East,6.9,-,N/A,,Partly Cloudy,80,2012-10-06 00:53:00
9:53 PM,84.0,75.9,76,29.97,10.0,East,8.1,-,N/A,,Partly Cloudy,80,2012-10-06 01:53:00
10:53 PM,84.0,77.0,79,29.98,10.0,East,6.9,-,N/A,,Scattered Clouds,80,2012-10-06 02:53:00
11:53 PM,84.0,75.9,76,29.98,10.0,East,6.9,-,N/A,,Scattered Clouds,80,2012-10-06 03:53:00